Cagliari, Italy

8:08 AM CET on December 09, 2016 (GMT +0100)
Elmas Mil

Weather History for LIEE - February, 2013

Change the Weather History Date:

Tuesday, February 5, 2013

  Actual Average Record
Temperature  
Mean Temperature 56 °F -  
Max Temperature 61 °F 58 °F 62 °F (1997)
Min Temperature 50 °F 43 °F 32 °F (2012)
Degree Days  
Heating Degree Days 10    
Growing Degree Days 6 (Base 50)    
Moisture  
Dew Point 48 °F    
Average Humidity 74    
Maximum Humidity 88    
Minimum Humidity 50    
Precipitation  
Precipitation 0.00 in 0.07 in - ()
Sea Level Pressure  
Sea Level Pressure 30.04 in    
Wind  
Wind Speed 12 mph ()    
Max Wind Speed 25 mph    
Max Gust Speed 37 mph    
Visibility 6.2 miles    
Events      
Averages and records for this station are not official NWS values.
T = Trace of Precipitation, MM = Missing Value Source: Averaged Metar Reports

Daily Weather History Graph

Daily Weather History Graph

Search for Another Location

Airport or City:

Trip Planner

Search our weather history database for the weather conditions in past years. The results will help you decide how hot, cold, wet, or windy it might be!

Date:

Astronomy

Feb. 05, 2013 Rise Set
Actual Time 7:26 AM CET 5:49 PM CET
Civil Twilight 6:58 AM CET 6:17 PM CET
Nautical Twilight 6:27 AM CET 6:49 PM CET
Astronomical Twilight 5:55 AM CET 7:20 PM CET
Moon 2:50 AM CET (2/5) 12:51 PM CET (2/5)
Length of Visible Light 11h 18m
Length of Day
10h 22m
Waning Crescent, 29% of the Moon is Illuminated
Feb 5
Waning Crescent
Feb 10
New
Feb 17
First Quarter
Feb 25
Full
Mar 4
Last Quarter

Hourly Weather History & Observations

Time (CET) Temp. Dew Point Humidity Pressure Visibility Wind Dir Wind Speed Gust Speed Precip Events Conditions
12:15 AM 53.6 °F 46.4 °F 77% 30.12 in 6.2 mi West 9.2 mph - N/A   Scattered Clouds
1:00 AM 54 °F 48 °F 74% 30.14 in 6 mi WNW 6.9 mph - -   Mostly Cloudy
1:45 AM 53.6 °F 48.2 °F 82% 30.12 in 6.2 mi WNW 6.9 mph - N/A   Scattered Clouds
2:15 AM 53.6 °F 46.4 °F 77% 30.12 in 6.2 mi WNW 6.9 mph - N/A   Scattered Clouds
2:45 AM 53.6 °F 46.4 °F 77% 30.12 in 6.2 mi WNW 6.9 mph - N/A   Scattered Clouds
3:15 AM 53.6 °F 46.4 °F 77% 30.12 in 6.2 mi WNW 6.9 mph - N/A   Scattered Clouds
3:45 AM 53.6 °F 48.2 °F 82% 30.09 in 6.2 mi WNW 9.2 mph - N/A   Scattered Clouds
4:00 AM 54 °F 48 °F 72% 30.11 in 6 mi WNW 9.2 mph - -   Mostly Cloudy
4:15 AM 53.6 °F 50.0 °F 88% 30.09 in 6.2 mi WNW 11.5 mph - N/A   Scattered Clouds
4:45 AM 53.6 °F 50.0 °F 88% 30.09 in 6.2 mi WNW 12.7 mph - N/A   Scattered Clouds
5:15 AM 53.6 °F 50.0 °F 88% 30.09 in 6.2 mi WNW 11.5 mph - N/A   Scattered Clouds
5:45 AM 53.6 °F 50.0 °F 88% 30.06 in 6.2 mi NW 18.4 mph - N/A   Mostly Cloudy
6:15 AM 53.6 °F 50.0 °F 88% 30.06 in 6.2 mi NW 18.4 mph - N/A   Mostly Cloudy
6:45 AM 53.6 °F 50.0 °F 88% 30.06 in 6.2 mi NW 13.8 mph - N/A   Mostly Cloudy
7:00 AM 54 °F 51 °F 84% 30.09 in 6 mi NW 13.8 mph - -   Mostly Cloudy
7:15 AM 53.6 °F 50.0 °F 88% 30.06 in 6.2 mi NW 10.4 mph - N/A   Mostly Cloudy
7:45 AM 53.6 °F 48.2 °F 82% 30.09 in 6.2 mi WNW 9.2 mph - N/A   Mostly Cloudy
8:15 AM 53.6 °F 48.2 °F 82% 30.09 in 6.2 mi NW 11.5 mph - N/A   Mostly Cloudy
8:45 AM 55.4 °F 48.2 °F 77% 30.09 in 6.2 mi NW 16.1 mph - N/A   Mostly Cloudy
9:15 AM 57.2 °F 48.2 °F 72% 30.06 in 6.2 mi NW 18.4 mph - N/A   Mostly Cloudy
9:45 AM 57.2 °F 48.2 °F 72% 30.06 in 6.2 mi NW 16.1 mph - N/A   Mostly Cloudy
10:00 AM 58 °F 48 °F 61% 30.09 in 7 mi NW 16.1 mph - -   Mostly Cloudy
10:15 AM 57.2 °F 50.0 °F 77% 30.06 in 6.2 mi NW 17.3 mph - N/A   Mostly Cloudy
10:45 AM 59.0 °F 50.0 °F 72% 30.06 in 6.2 mi NW 19.6 mph - N/A   Mostly Cloudy
11:15 AM 59.0 °F 50.0 °F 72% 30.06 in 6.2 mi NW 20.7 mph 32.2 mph N/A   Scattered Clouds
11:45 AM 60.8 °F 48.2 °F 63% 30.06 in 6.2 mi NW 24.2 mph 36.8 mph N/A   Scattered Clouds
12:15 PM 59.0 °F 48.2 °F 67% 30.06 in 6.2 mi NW 24.2 mph - N/A   Scattered Clouds
12:45 PM 60.8 °F 46.4 °F 59% 30.04 in 6.2 mi NW 24.2 mph 36.8 mph N/A   Scattered Clouds
1:00 PM 60 °F 46 °F 50% 30.06 in 7 mi NW 24.2 mph - -   Partly Cloudy
1:15 PM 60.8 °F 44.6 °F 55% 30.04 in 6.2 mi NW 25.3 mph 36.8 mph N/A   Scattered Clouds
1:45 PM 59.0 °F 44.6 °F 59% 30.04 in 6.2 mi NW 23.0 mph 36.8 mph N/A   Scattered Clouds
2:15 PM 60.8 °F 46.4 °F 59% 30.01 in 6.2 mi WNW 23.0 mph - N/A   Scattered Clouds
2:45 PM 60.8 °F 44.6 °F 55% 30.04 in 6.2 mi NW 20.7 mph - N/A   Mostly Cloudy
3:15 PM 60.8 °F 44.6 °F 55% 30.01 in 6.2 mi WNW 19.6 mph - N/A   Mostly Cloudy
3:45 PM 60.8 °F 46.4 °F 59% 30.01 in 6.2 mi West 19.6 mph - N/A   Scattered Clouds
4:00 PM 60 °F 46 °F 50% 30.03 in 7 mi West 19.6 mph - -   Partly Cloudy
4:15 PM 60.8 °F 46.4 °F 59% 30.01 in 6.2 mi West 18.4 mph - N/A   Scattered Clouds
4:45 PM 59.0 °F 46.4 °F 63% 30.01 in 6.2 mi West 17.3 mph - N/A   Scattered Clouds
5:15 PM 57.2 °F 48.2 °F 72% 30.01 in 6.2 mi West 15.0 mph - N/A   Scattered Clouds
5:45 PM 57.2 °F 48.2 °F 72% 30.01 in 6.2 mi WNW 11.5 mph - N/A   Scattered Clouds
6:15 PM 55.4 °F 48.2 °F 77% 30.01 in 6.2 mi WNW 13.8 mph - N/A   Scattered Clouds
6:45 PM 55.4 °F 48.2 °F 77% 30.01 in 6.2 mi WNW 13.8 mph - N/A   Partly Cloudy
7:00 PM 55 °F 49 °F 73% 30.01 in 7 mi WNW 13.8 mph - -   Scattered Clouds
7:15 PM 53.6 °F 48.2 °F 82% 30.01 in 6.2 mi WNW 13.8 mph - N/A   Partly Cloudy
7:45 PM 53.6 °F 46.4 °F 77% 30.01 in 6.2 mi WNW 13.8 mph - N/A   Partly Cloudy
8:15 PM 53.6 °F 46.4 °F 77% 30.01 in 6.2 mi WNW 12.7 mph - N/A   Partly Cloudy
8:45 PM 53.6 °F 48.2 °F 82% 29.98 in 6.2 mi WNW 13.8 mph - N/A   Partly Cloudy
9:15 PM 53.6 °F 46.4 °F 77% 29.95 in 6.2 mi WNW 16.1 mph - N/A   Partly Cloudy
9:45 PM 53.6 °F 46.4 °F 77% 29.95 in 6.2 mi West 16.1 mph - N/A   Partly Cloudy
10:00 PM 54 °F 46 °F 67% 29.95 in 6 mi West 16.1 mph - -   Scattered Clouds
10:15 PM 51.8 °F 46.4 °F 82% 29.95 in 6.2 mi West 10.4 mph - N/A   Partly Cloudy
10:45 PM 51.8 °F 46.4 °F 82% 29.92 in 6.2 mi WNW 5.8 mph - N/A   Partly Cloudy
11:15 PM 50.0 °F 44.6 °F 82% 29.92 in - WNW 5.8 mph - N/A   Clear
11:45 PM 50.0 °F 44.6 °F 82% 29.92 in - NNW 4.6 mph - N/A   Clear